FLOCK 4G 1

导读

FLOCK 4G 1是一颗由美国发射的卫星,于2025年1月14日完成发射。作为FLOCK系列卫星的组成部分,该卫星延续了该系列在对地观测领域的技术路线,依托较低轨道部署优势,可获取高分辨率地球影像数据,在农业监测、城市规划、灾害评估以及地理信息更新等领域具备应用潜力,目前已在轨开展相关观测任务。

Basic Information
目录编号:
62666
目录名称:
FLOCK 4G 1
国际标识:
2025-009BK
轨道中心:
EARTH
卫星名称:
FLOCK 4G 1
卫星全名:
FLOCK 4G 1
卫星状态:
在轨 (已飞行598 天)
发射日期:
2025-01-14 UTC
国别 :
美国 (US)
星等 :
--
Orbit Information
数据来源 国际轨道数据
星历时间: 2026-09-04T12:20:12+0800
7小时前
查看轨道信息
半长轴: 6850.597km
偏心率: 0.0005077
轨道倾角: 97.398°
近地点辐角 55.358°
升交点赤经 328.919°
平近点角 304.814°
近地点: 468.981km
远地点: 475.939km
周期: 94.049分钟
每日圈数: 15.311235
Detailed Information
使用方式:
暂无
2D Orbit Map
3D Orbit Map
Orbit Altitude Analysis Chart
Orbit Inclination Analysis Chart
Orbit Comprehensive Analysis Chart
View Comprehensive Chart
Conjunction Data List
Event ID Objects TCA Miss Dist (km) Collision Risk Probability Collision Risk Index (CRI) Action
CDM_260905-005305-379506-266622
2026-09-05T
00:53:26+0000
1.299 km
极远距离
1.069922E-5 中风险 0.56
CDM_260905-180804-841006-266621
2026-09-05T
18:08:24+0000
1.308 km
极远距离
1.044957E-5 中风险 0.55
CDM_260905-103205-322606-266621
2026-09-05T
10:32:07+0000
1.398 km
极远距离
3.233679E-6 低风险 0.45
CDM_260905-003805-362306-266621
2026-09-05T
00:38:02+0000
2.861 km
极远距离
1.414498E-6 低风险 0.38
CDM_260904-041406-266606-620122
2026-09-04T
04:14:36+0000
2.875 km
极远距离
1.405239E-6 低风险 0.38
CDM_260831-014306-266606-623421
2026-08-31T
01:43:48+0000
2.902 km
极远距离
1.335514E-6 低风险 0.38
CDM_260903-181906-266606-396223
2026-09-03T
18:19:21+0000
2.680 km
极远距离
1.281359E-6 低风险 0.37
CDM_260905-072305-322606-266621
2026-09-05T
07:23:54+0000
2.911 km
极远距离
6.291759E-7 极低风险 0.31